Nogales, AZ

5:06 AM MST on January 18, 2018 (GMT -0700)
Nogales International

Weather History for KOLS - December, 2012

Change the Weather History Date:

Wednesday, December 26, 2012

  Actual Average (KFHU) Record (KFHU)
Temperature  
Mean Temperature 48 °F -  
Max Temperature 63 °F 58 °F 71 °F (1985)
Min Temperature 33 °F 35 °F 15 °F (1987)
Degree Days  
Heating Degree Days 17    
Moisture  
Dew Point 17 °F    
Average Humidity 39    
Maximum Humidity 67    
Minimum Humidity 9    
Precipitation  
Precipitation 0.00 in - - ()
Sea Level Pressure  
Sea Level Pressure 29.86 in    
Wind  
Wind Speed 4 mph (SSE)    
Max Wind Speed 14 mph    
Max Gust Speed 18 mph    
Visibility 10 miles    
Events      
Averages and records for this station are not official NWS values.
T = Trace of Precipitation, MM = Missing Value Source: NWS Daily Summary

Daily Weather History Graph

Daily Weather History Graph

Search for Another Location

Airport or City:

Trip Planner

Search our weather history database for the weather conditions in past years. The results will help you decide how hot, cold, wet, or windy it might be!

Date:

Astronomy

Dec. 26, 2012 Rise Set
Actual Time 7:20 AM MST 5:27 PM MST
Civil Twilight 6:54 AM MST 5:54 PM MST
Nautical Twilight 6:23 AM MST 6:24 PM MST
Astronomical Twilight 5:54 AM MST 6:54 PM MST
Moon 4:22 PM MST (12/26) 5:49 AM MST (12/26)
Length of Visible Light 11h 00m
Length of Day
10h 06m
Waxing Gibbous, 98% of the Moon is Illuminated
Dec 26
Waxing Gibbous
Dec 28
Full
Jan 4
Last Quarter
Jan 11
New
Jan 18
First Quarter

Hourly Weather History & Observations

Time (MST) Temp. Windchill Dew Point Humidity Pressure Visibility Wind Dir Wind Speed Gust Speed Precip Events Conditions
12:54 AM 39.9 °F - 25.0 °F 55% 29.93 in 10.0 mi Calm Calm - N/A   Clear
1:54 AM 37.0 °F 34.5 °F 25.0 °F 62% 29.91 in 10.0 mi ENE 3.5 mph - N/A   Clear
2:54 AM 37.0 °F - 25.0 °F 62% 29.89 in 10.0 mi Calm Calm - N/A   Clear
3:54 AM 35.1 °F 30.1 °F 25.0 °F 67% 29.88 in 10.0 mi ENE 5.8 mph - N/A   Clear
4:54 AM 35.1 °F 32.2 °F 23.0 °F 61% 29.87 in 10.0 mi South 3.5 mph - N/A   Clear
5:54 AM 34.0 °F - 21.9 °F 61% 29.88 in 10.0 mi Calm Calm - N/A   Clear
6:54 AM 33.1 °F 30.0 °F 21.9 °F 64% 29.90 in 10.0 mi ENE 3.5 mph - N/A   Clear
7:54 AM 34.0 °F 31.0 °F 23.0 °F 64% 29.91 in 10.0 mi ENE 3.5 mph - N/A   Clear
8:54 AM 39.9 °F 37.8 °F 26.1 °F 58% 29.91 in 10.0 mi SSE 3.5 mph - N/A   Clear
9:54 AM 44.1 °F - 28.9 °F 55% 29.92 in 10.0 mi Calm Calm - N/A   Clear
10:54 AM 53.1 °F - 25.0 °F 34% 29.89 in 10.0 mi South 6.9 mph - N/A   Clear
11:54 AM 61.0 °F - 16.0 °F 17% 29.85 in 10.0 mi SSW 9.2 mph - N/A   Clear
12:54 PM 63.0 °F - 12.0 °F 14% 29.82 in 10.0 mi SSW 6.9 mph - N/A   Clear
1:54 PM 63.0 °F - 3.0 °F 9% 29.80 in 10.0 mi SW 11.5 mph 18.4 mph N/A   Clear
2:54 PM 62.1 °F - 3.0 °F 9% 29.78 in 10.0 mi SW 11.5 mph - N/A   Clear
3:54 PM 62.1 °F - 7.0 °F 11% 29.78 in 10.0 mi SW 13.8 mph - N/A   Clear
4:54 PM 55.9 °F - 9.0 °F 15% 29.81 in 10.0 mi SW 11.5 mph - N/A   Clear
5:54 PM 51.1 °F - 12.0 °F 21% 29.82 in 10.0 mi SSW 5.8 mph - N/A   Clear
6:54 PM 48.9 °F - 12.0 °F 23% 29.85 in 10.0 mi South 9.2 mph - N/A   Clear
7:54 PM 45.0 °F 42.6 °F 12.0 °F 26% 29.87 in 10.0 mi South 4.6 mph - N/A   Clear
8:54 PM 39.0 °F 36.8 °F 12.9 °F 34% 29.87 in 10.0 mi East 3.5 mph - N/A   Clear
9:54 PM 37.0 °F 33.3 °F 12.0 °F 36% 29.87 in 10.0 mi East 4.6 mph - N/A   Clear
10:54 PM 37.0 °F 33.3 °F 12.0 °F 36% 29.86 in 10.0 mi NE 4.6 mph - N/A   Clear
11:54 PM 35.1 °F 32.2 °F 12.9 °F 40% 29.86 in 10.0 mi East 3.5 mph - N/A   Clear